Location: Aarhus
(56.1534°N, 10.2255°E)
Time: 11:53:02
(UTC+00:00)

Daily predictions for brighter satellites

Satellite Brightness Start Highest point End
(mag) Time Altitude Azimuth Time Altitude Azimuth Time Altitude Azimuth
Cosmos 1763 Rocket 4.3 15:24:30 10° SW 15:29:23 46° NW 15:34:17 10° NNE
Cosmos 1869 3.5 15:26:05 10° SSW 15:30:12 81° WNW 15:34:22 10° N
SMAP 3.7 15:26:28 10° SE 15:30:38 34° ENE 15:34:50 10° N
Cosmos 2327 Rocket 4.5 15:25:11 10° N 15:31:23 77° ENE 15:37:38 10° SSE
Cosmos 2074 Rocket 4.3 15:27:03 10° NNW 15:33:18 77° W 15:39:33 10° S
SL-8 Rocket 4.4 15:27:54 10° N 15:33:47 41° ENE 15:39:40 10° SE
CZ-4C R/B 4.5 15:32:14 10° NE 15:35:06 21° E 15:37:56 10° SE
Cosmos 2341 Rocket 4.2 15:29:04 10° N 15:35:12 51° ENE 15:41:21 10° SE
YAOGAN 1 4.5 15:35:15 10° ENE 15:36:15 11° NE 15:37:15 10° NNE
Cosmos 2278 Rocket 3.9 15:31:21 10° NW 15:36:36 39° WSW 15:41:49 10° S
Cosmos 1743 Rocket 4.0 15:33:19 10° NNW 15:37:48 70° W 15:42:12 10° S
Cosmos 1295 Rocket 4.5 15:32:57 10° N 15:39:07 72° ENE 15:45:22 10° SSE
Radarsat Rocket 4.3 15:35:22 10° SE 15:41:40 66° ENE 15:48:51 10° NNW
CZ-2C R/B 4.4 15:41:28 10° E 15:44:20 16° NE 15:47:10 10° NNE
CZ-4B DEB 4.2 15:38:59 10° SSE 15:44:26 73° ENE 15:49:54 10° NNW
Cosmos 2360 Rocket 3.3 15:39:22 10° WSW 15:44:35 37° NW 15:49:48 10° NNE
Cosmos 2285 Rocket 4.0 15:38:55 10° NNW 15:45:21 69° ENE 15:51:41 10° SE
Cosmos 2333 Rocket 2.6 15:39:56 10° SW 15:45:33 61° NW 15:51:12 10° NNE
USA 281 3.9 15:40:38 10° E 15:46:20 33° NE 15:52:02 10° NNW
SL-16 R/B 3.7 15:40:56 10° N 15:46:40 39° NW 15:52:23 10° WSW
Cosmos 2219 Rocket 2.6 15:42:16 10° SW 15:47:53 63° NW 15:53:29 10° NNE
NOSS 3-3 (A) 4.5 15:41:36 10° WNW 15:48:25 60° NNE 15:56:16 10° ESE
Cosmos 540 Rocket 4.1 15:44:18 10° SW 15:49:20 54° NW 15:54:22 10° NNE
COSMOS 2428 3.1 15:47:04 10° SW 15:52:47 66° NW 15:58:31 10° NNE
USA 267 3.3 15:48:11 10° E 15:54:45 84° N 16:01:20 10° W
CORIOLIS 4.4 15:49:49 10° SE 15:55:02 50° ENE 16:00:18 10° N
Cosmos 1805 Rocket 3.7 15:51:58 10° NNW 15:56:28 84° W 16:00:54 10° S
PAYLOAD B 4.2 15:51:52 10° SSE 15:57:26 77° ENE 16:03:00 10° NNW
Cosmos 1356 3.4 15:54:38 10° NNW 15:58:06 88° ENE 16:01:32 10° SSE
NOSS 0 Rocket 4.0 15:51:55 10° SSW 15:58:11 83° ESE 16:04:26 10° NE
Cosmos 1842 Rocket 4.0 15:53:54 10° SSW 15:58:12 63° WNW 16:02:32 10° N
Cosmos 1980 Rocket 3.9 15:55:28 10° NW 15:59:18 18° N 16:03:10 10° NE
Cosmos 44 Rocket 3.7 15:54:37 10° NW 15:59:36 50° NNE 16:04:40 10° ESE
Meteor 1-20 Rocket 4.3 15:53:54 10° N 15:59:44 60° ENE 16:05:29 10° SSE
H-2A R/B 3.5 15:56:35 10° E 15:59:44 17° NE 16:02:50 10° N
Helios 1A Rocket 4.5 15:58:00 10° E 16:00:21 15° NE 16:02:42 10° NNE
SeaSat 1 4.5 15:59:15 10° NNE 16:01:52 15° N 16:04:29 10° NW
Meteor 1-4 Rocket 4.3 16:00:17 10° ESE 16:02:19 15° E 16:03:14 13° ENE
Cosmos 1933 Rocket 4.5 15:58:38 10° N 16:02:28 27° ENE 16:06:17 10° ESE
Cosmos 405 4.0 15:59:39 10° SW 16:03:00 44° WNW 16:06:23 10° N
SJ-7 4.5 15:59:44 10° SSE 16:03:43 82° WSW 16:07:45 10° NNW
Cosmos 1666 Rocket 3.6 15:59:25 10° N 16:03:49 63° ENE 16:08:13 10° SSE
Cosmos 2181 Rocket 4.5 16:00:00 10° SSE 16:05:51 39° E 16:11:39 10° NNE
Cosmos 1939 Rocket 3.8 16:03:05 10° ESE 16:06:19 25° ENE 16:09:34 10° N
Cosmos 1602 4.3 16:03:37 10° N 16:07:16 35° ENE 16:10:52 10° SE
Cosmos 2237 Rocket 2.2 16:02:24 10° SSW 16:08:02 81° ESE 16:13:44 10° NE
Cosmos 389 Rocket 2.6 16:04:53 10° S 16:08:12 49° E 16:11:32 10° NNE
CZ-4 R/B 2.9 16:06:00 10° E 16:08:40 17° NE 16:11:22 10° NNE
NOAA 11 4.3 16:05:32 10° SE 16:10:45 51° ENE 16:16:02 10° N
SL-16 R/B 3.8 16:06:34 10° WNW 16:11:00 23° NNW 16:15:28 10° NNE
PSLV R/B 4.2 16:07:21 10° S 16:11:27 71° WSW 16:15:29 10° NNW
CZ-4B R/B 3.1 16:06:36 10° SSE 16:11:52 73° ENE 16:17:11 10° NNW
Cosmos 2369 Rocket 2.2 16:07:18 10° NNW 16:13:00 66° NE 16:18:39 10° SE
ADEOS Rocket 3.6 16:06:50 10° NNE 16:14:36 74° ESE 16:22:21 10° S
Cosmos 1943 Rocket 2.2 16:09:02 10° NW 16:14:37 89° WSW 16:20:13 10° SSE
H-2A R/B 2.5 16:10:29 10° SSE 16:14:41 82° WSW 16:18:44 10° NNW
H-2A R/B 2.4 16:15:11 10° NNE 16:19:13 42° E 16:23:18 10° S
NOAA 12 4.1 16:16:13 10° SSE 16:21:32 79° ENE 16:26:52 10° NNW
Cosmos 2221 3.7 16:17:37 10° SW 16:21:44 43° WNW 16:25:51 10° N
CZ-2D R/B 4.2 16:20:30 10° ESE 16:23:43 26° ENE 16:26:57 10° N
Cosmos 2056 Rocket 4.4 16:21:14 10° NNW 16:25:46 28° NE 16:29:05 16° E
CRYOSAT 2 4.3 16:21:42 10° N 16:26:37 72° E 16:31:30 10° S
Cosmos 1980 3.9 16:22:20 10° SW 16:28:01 76° NW 16:33:27 12° NNE
Cosmos 1633 Rocket 3.0 16:23:40 10° NNW 16:28:06 85° E 16:32:28 10° SSE
Okean O Rocket 1.5 16:23:53 10° SSE 16:28:15 81° ENE 16:32:41 10° NNW
Cosmos 1782 3.7 16:25:51 10° SSE 16:29:14 28° E 16:31:08 19° NE
ARGOS 4.3 16:27:00 17° E 16:29:17 21° NE 16:33:15 10° N
Okean-O 3.5 16:26:15 10° ESE 16:29:59 27° ENE 16:33:43 10° N
ISS -2.6 16:27:26 10° WSW 16:30:36 38° S 16:32:58 16° ESE
H-2A R/B 4.4 16:29:16 10° SSW 16:32:54 39° W 16:36:36 10° NNW
Cosmos 2218 Rocket 3.9 16:28:10 10° N 16:34:22 78° ENE 16:40:31 10° SSE
Cosmos 1933 3.4 16:30:50 10° S 16:34:49 57° E 16:38:51 10° NNE
Cosmos 2366 rocket 3.9 16:29:05 10° N 16:35:19 77° ENE 16:41:29 10° SSE
ERS-2 3.4 16:36:10 22° E 16:36:13 22° E 16:39:09 10° SSE
Meteor 1-25 Rocket 4.3 16:30:35 10° NNW 16:36:14 85° WSW 16:41:56 10° S
Nadezhda 1 Rocket 4.4 16:31:04 10° SSW 16:37:25 67° WNW 16:43:50 10° N
Cosmos 1867 3.6 16:35:43 10° SW 16:41:08 74° SE 16:44:54 21° NE
GEOS 3 Rocket 4.3 16:38:09 17° NE 16:42:11 49° NNW 16:47:21 10° W
Envisat 4.1 16:39:47 10° S 16:44:42 48° W 16:49:39 10° NNW
Cosmos 371 Rocket 3.9 16:42:18 10° NNW 16:46:51 36° NE 16:49:18 22° E
Lacrosse 5 rocket 1.7 16:45:38 10° SW 16:49:04 41° SSE 16:50:15 30° ESE
Cosmos 2084 Rocket 4.4 16:46:51 10° WNW 16:50:44 33° N 16:52:26 25° NE
Cosmos 773 Rocket 4.1 16:46:02 10° S 16:51:11 56° ESE 16:54:45 20° NE
YAOGAN 6 4.2 16:50:20 10° SSW 16:53:42 36° W 16:57:03 10° NNW
Cosmos 2322 Rocket 4.0 16:50:14 10° WNW 16:54:19 20° NNW 16:57:38 13° NNE
CZ-4B R/B 2.0 16:56:25 33° ESE 16:56:25 33° ESE 16:58:50 10° SSE
Cosmos 1606 3.4 16:52:45 10° SSW 16:56:34 54° WNW 17:00:24 10° N
Landsat 5 3.8 16:52:29 10° NNE 16:56:55 73° WNW 17:01:25 10° SSW
FengYun 1-2 T 4.4 16:53:18 10° SSE 16:58:48 78° WSW 17:04:21 10° NNW
Cosmos 1666 4.4 16:55:28 10° N 16:56:54 19° NNE 16:56:54 19° NNE
Feng Yun 1-1 Rocket 4.2 16:53:12 10° SSE 16:58:54 80° ENE 17:04:28 10° NNW
SL-16 R/B 2.1 16:55:31 10° SSW 17:01:11 79° ESE 17:05:04 21° NE
Cosmos 1500 3.1 16:59:56 10° N 17:03:43 58° ENE 17:07:30 10° SSE
BREEZE-M DEB (TANK) 4.4 17:03:08 10° S 17:03:26 11° S 17:03:26 11° S
Cosmos 1697 Rocket 4.1 17:01:38 10° NNW 17:05:56 21° NNE 17:07:04 20° NE
SMAP 4.2 17:03:26 10° S 17:07:54 45° W 17:12:25 10° NNW
CZ-4C R/B 4.1 17:04:30 10° N 17:08:01 47° WNW 17:11:31 10° SW
Cosmos 1656 Rocket 3.6 17:02:50 10° NW 17:08:34 87° ENE 17:14:10 10° SE
SL-24 DEB 4.4 17:04:47 10° NNE 17:09:27 52° E 17:14:03 10° SSE
Cosmos 1470 Rocket 3.9 17:06:17 10° NNW 17:10:36 66° W 17:14:52 10° S
YAOGAN 1 2.7 17:09:18 26° SE 17:11:23 46° ENE 17:15:33 10° N
MOS 1 Rocket 4.5 17:13:26 29° ESE 17:13:26 29° ESE 17:17:18 10° SSE
CSL-04 DEB 4.4 17:09:42 19° NNE 17:12:39 89° ESE 17:16:53 10° SSW
Cosmos 1151 Rocket 3.1 17:10:43 10° SSW 17:14:59 77° WNW 17:18:44 13° N
Cosmos 2263 4.4 17:11:45 10° NW 17:17:22 70° WSW 17:22:55 10° SSE
Cosmos 1934 Rocket 4.2 17:12:58 10° N 17:19:10 49° ENE 17:25:17 10° SE
Cosmos 332 Rocket 4.0 17:17:45 10° NNW 17:22:24 45° NE 17:22:43 44° ENE
Cosmos 1238 Rocket 2.8 17:19:00 10° N 17:22:44 61° ENE 17:27:15 10° SSE
Cosmos 1515 Rocket 3.4 17:18:35 10° S 17:22:58 73° E 17:25:09 29° NNE
COSMO-SKYMED 1 2.6 17:23:06 50° E 17:23:28 52° E 17:27:42 10° S
CZ-2C R/B 2.7 17:18:36 10° SSE 17:23:29 68° ENE 17:28:15 10° NNW
TIMED 4.4 17:22:12 10° SSW 17:26:33 77° ESE 17:27:39 49° NE
X-37B 3.4 17:29:05 10° S 17:29:28 10° S 17:29:28 10° S
Cosmos 2360 Rocket 4.0 17:26:12 10° WNW 17:30:13 19° NNW 17:32:36 15° NNE
USA 281 3.1 17:23:38 10° SE 17:30:14 85° NE 17:36:51 10° NNW
Cosmos 2333 Rocket 3.9 17:26:21 10° WNW 17:30:57 24° NNW 17:34:05 16° NNE
CSL-04 Debris 4.2 17:27:30 21° SE 17:31:03 57° ENE 17:36:26 10° NNW
Nadezhda 3 Rocket 4.0 17:26:21 10° S 17:32:33 58° E 17:38:47 10° NNE
Cosmos 2219 Rocket 3.9 17:28:21 10° W 17:32:56 24° NNW 17:36:03 16° NNE
Helios 1A Rocket 2.7 17:33:25 38° SSE 17:34:54 81° ENE 17:38:58 10° NNW
Cosmos 1821 Rocket 3.9 17:28:56 10° NNW 17:35:13 89° ENE 17:41:33 10° S
Meteor 2-6 Rocket 4.1 17:30:06 10° S 17:35:30 57° E 17:37:15 40° NE
Cosmos 2228 Rocket 3.7 17:31:11 10° S 17:34:28 41° SE 17:34:28 41° SE
Meteor 1-4 Rocket 2.8 17:33:21 10° SSW 17:36:55 64° WNW 17:37:26 54° NNW
SeaSat 1 4.3 17:38:00 16° NNE 17:38:00 16° NNE 17:40:48 10° NNW
USA 267 3.3 17:34:11 28° ESE 17:37:56 74° SSW 17:44:31 10° WNW
COSMOS 2428 4.4 17:33:22 10° W 17:38:07 26° NNW 17:41:14 17° NNE
H-2A R/B 1.9 17:35:17 24° SE 17:38:21 65° ENE 17:43:24 10° NNW
Meteor 1-11 Rocket 3.7 17:32:38 10° NNW 17:38:24 71° ENE 17:44:16 10° SSE
Cosmos 1933 Rocket 4.4 17:36:15 10° NNW 17:40:36 51° W 17:44:55 10° S
Cosmos 1939 Rocket 3.8 17:37:14 10° S 17:41:02 48° W 17:44:54 10° NNW
Cosmos 44 Rocket 4.0 17:36:17 10° NW 17:41:19 56° SW 17:45:08 17° SSE
Cosmos 1328 Rocket 4.4 17:38:48 10° SSW 17:43:01 50° WNW 17:46:28 15° N
CZ-4 R/B 1.3 17:41:26 34° SSE 17:43:09 85° WSW 17:47:17 10° NNW
Cosmos 1980 Rocket 3.6 17:41:06 10° NNW 17:45:16 22° NNE 17:45:16 22° NNE
CSL-04 Rocket 3.5 17:44:04 42° SE 17:45:50 67° ENE 17:51:06 10° NNW
SKYMED 3 4.4 17:47:24 80° ENE 17:47:33 83° ESE 17:51:55 10° SSW
Cosmos 2237 Rocket 3.5 17:47:39 10° W 17:52:43 33° NW 17:55:40 21° NNE
H-2A R/B 3.7 17:51:55 13° N 17:55:07 31° WNW 17:58:53 10° WSW
Cosmos 2369 Rocket 3.9 17:51:44 10° NW 17:56:43 32° WSW 18:01:39 10° SSW
Cosmos 1603 3.6 17:51:12 10° SSW 17:56:45 65° ESE 17:56:56 64° ESE
SL-16 R/B 3.9 17:53:17 10° NW 17:57:12 19° N 17:57:42 18° NNE
CZ-2D R/B 4.4 17:54:13 10° S 17:57:54 44° W 18:01:38 10° NNW
Cosmos 1943 3.2 17:54:33 10° SSW 17:59:58 62° SE 17:59:58 62° SE
Cosmos 304 Rocket 4.2 17:56:59 10° NNW 18:00:45 50° N 18:00:45 50° N
Cosmos 1371 Rocket 4.0 17:57:00 10° NNW 18:02:13 79° WSW 18:03:40 48° SSE
Cosmos 1538 Rocket 4.1 17:56:52 10° SSW 18:02:16 77° WNW 18:03:44 49° NNE
Cosmos 1782 4.1 18:01:41 10° SW 18:05:26 39° WNW 18:06:45 29° NNW
Okean-O 3.2 18:01:53 10° S 18:06:13 55° WSW 18:10:37 10° NNW
ISS -1.5 18:04:04 10° WSW 18:05:55 22° SW 18:05:55 22° SW
Cosmos 2056 Rocket 3.5 18:03:12 10° NNW 18:08:30 80° WSW 18:09:29 60° S
ARGOS 3.0 18:08:32 77° SE 18:08:53 82° ENE 18:14:18 10° NNW
ERS-2 3.5 18:10:45 39° WSW 18:10:45 39° WSW 18:13:29 10° SW
CENTAUR R/B 3.7 18:04:54 10° S 18:07:44 25° SSE 18:07:44 25° SSE
SKYMED 2 3.9 18:11:44 63° W 18:11:44 63° W 18:15:54 10° SSW
Cosmos 1869 Rocket 4.3 18:10:58 10° NNW 18:15:22 53° W 18:17:48 24° SSW
Cosmos 1452 Rocket 4.4 18:16:13 10° NNW 18:19:39 38° N 18:19:39 38° N
Cosmos 1605 Rocket 3.8 18:15:51 10° N 18:21:48 79° NE 18:21:48 79° NE
Cosmos 1867 4.3 18:19:54 10° W 18:25:08 44° NNW 18:25:34 43° N
Cosmos 1624 Rocket 4.4 18:19:56 10° NNW 18:25:11 62° WSW 18:25:56 55° SSW
Cosmos 371 Rocket 4.1 18:22:44 10° NW 18:27:28 50° WSW 18:28:01 47° SW
CZ-4B R/B 4.3 18:29:34 15° W 18:29:34 15° W 18:30:26 10° WSW
Lacrosse 5 rocket 3.3 18:24:24 10° W 18:25:53 23° W 18:25:53 23° W
Meteor 1-10 Rocket 4.2 18:23:06 10° SSW 18:28:43 78° WNW 18:28:50 77° WNW
Cosmos 2322 Rocket 4.1 18:36:25 10° NNW 18:39:26 19° N 18:39:26 19° N
NOSS 3-2 (A) 4.1 18:37:36 10° SW 18:41:27 43° SSW 18:41:27 43° SSW
USA 215 3.9 18:46:42 42° S 18:46:42 42° S 18:51:23 10° SW
SL-16 R/B 3.5 18:40:46 10° W 18:45:53 33° NW 18:46:58 31° NNW
YAOGAN 1 4.4 18:46:28 25° WSW 18:47:41 28° W 18:51:28 10° NNW
Cosmos 1697 Rocket 4.1 18:45:49 10° NNW 18:48:48 29° NNW 18:48:48 29° NNW
USA 238 DEB 4.3 18:56:12 10° SW 19:00:35 45° SSW 19:00:35 45° SSW
USA 238 4.3 18:56:17 10° SW 19:00:39 44° SSW 19:00:39 44° SSW
Cosmos 2360 Rocket 4.3 19:12:15 10° NNW 19:14:21 17° NNW 19:14:21 17° NNW
Cosmos 2333 Rocket 4.3 19:13:21 10° NW 19:16:04 17° NNW 19:16:04 17° NNW
H-2A R/B 3.9 19:15:54 20° SW 19:18:11 26° W 19:22:29 10° NW
CZ-4 R/B 4.5 19:17:28 11° WSW 19:18:53 13° W 19:20:48 10° WNW
Cosmos 2219 Rocket 4.4 19:15:07 10° NW 19:17:45 17° NNW 19:17:45 17° NNW
USA 267 4.3 19:21:32 36° SW 19:21:37 36° SW 19:27:35 10° WNW
Cosmos 1980 Rocket 4.2 19:25:16 10° NNW 19:27:02 20° NNW 19:27:02 20° NNW
Cosmos 2237 Rocket 4.4 19:34:37 10° NW 19:37:29 18° NNW 19:37:29 18° NNW
